Location: Newark
(49.4500°N, 11.0833°E)
Time: 13:58:00
(UTC+00:00)

Envisat - Visible Passes

Search period start: 22 October 2019 00:00
Search period end: 01 November 2019 00:00
Orbit: 764 x 766 km, 98.1° (Epoch: 22 October)

Date Brightness Start Highest point End Pass type
(mag) Time Alt. Az. Time Alt. Az. Time Alt. Az.
22 Oct 6.1 05:00:58 10° NE 05:04:20 18° E 05:07:43 10° SE visible
22 Oct 4.6 17:58:11 10° SSW 18:02:51 36° W 18:07:33 10° NNW visible
23 Oct 3.2 17:20:51 10° S 17:25:55 74° WSW 17:31:02 10° NNW visible
23 Oct 6.2 19:04:33 10° W 19:05:51 11° W 19:07:10 10° WNW visible
24 Oct 3.1 16:44:14 10° SSE 16:49:12 56° ENE 16:54:11 10° N visible
24 Oct 5.4 18:24:37 10° SW 18:28:35 23° W 18:32:34 10° NW visible
25 Oct 6.2 04:50:14 10° NE 04:52:56 14° E 04:55:37 10° ESE visible
25 Oct 4.2 17:46:40 10° S 17:51:30 45° W 17:56:24 10° NNW visible
26 Oct 3.0 17:09:33 10° SSE 17:14:39 90° WNW 17:19:46 10° NNW visible
26 Oct 6.1 18:51:52 10° WSW 18:54:25 14° W 18:56:59 10° NW visible
27 Oct 5.8 05:14:43 10° NE 05:18:46 23° E 05:22:47 10° SE visible
27 Oct 3.3 16:33:08 10° SE 16:37:58 46° ENE 16:42:50 10° N visible
27 Oct 5.1 18:12:53 10° SSW 18:17:12 28° W 18:21:33 10° NW visible
28 Oct 6.5 04:39:55 10° ENE 04:41:29 11° E 04:43:04 10° ESE visible
28 Oct 3.7 17:35:13 10° S 17:40:12 55° W 17:45:13 10° NNW visible
29 Oct 2.9 16:58:19 10° SSE 17:03:23 75° ENE 17:08:29 10° N visible
29 Oct 5.8 18:39:43 10° SW 18:42:59 17° W 18:46:18 10° NW visible
30 Oct 6.0 05:03:46 10° NE 05:07:22 19° E 05:10:57 10° SE visible
30 Oct 4.7 18:01:16 10° SSW 18:05:50 34° W 18:10:28 10° NNW visible
31 Oct 3.4 17:23:51 10° S 17:28:54 68° WSW 17:33:59 10° NNW visible
